Location: Newark
(50.4348°N, 30.5552°E)
Time: 20:43:15
(UTC+00:00)

Courier 1B - All Passes

Search period start: 29 January 2020 00:00
Search period end: 08 February 2020 00:00
Orbit: 962 x 1209 km, 28.3° (Epoch: 29 January)

Date Brightness Start Highest point End Pass type
(mag) Time Alt. Az. Time Alt. Az. Time Alt. Az.
29 Jan - 01:52:25 10° SSW 01:54:30 11° S 01:56:36 10° SSE visible
30 Jan - 00:59:03 10° SSW 01:01:03 11° S 01:03:05 10° SSE visible
31 Jan - 00:06:08 10° S 00:07:38 11° S 00:09:08 10° SSE night (unlit)
02 Feb - 00:12:29 10° S 00:13:19 10° S 00:14:09 10° S night (unlit)
02 Feb - 23:19:29 10° S 23:19:55 10° S 23:20:22 10° S night (unlit)
